Retour au catalogue

BREEZE-M DEB

TANK

ActifHEO
NORAD 41583·DEBRIS·🇷🇺 Russia

Lancé Jun 9, 2016 depuis Baikonur Cosmodrome

Loading…

Prochains Passages (prochaines 24 heures)

TLE

FraisSource: Space-Track

Époque: Sep 13, 2026, 19:46 UTC

1 41583U 16035C   26256.82362494  .00001503  00000-0  56205-3 0  9995
2 41583  50.7167 220.9263 4989189  48.2448 344.8432  5.56746370206796

Suivez BREEZE-M DEB en temps réel avec AllMySat

Download on the App Store